Station 51002 (LLNR 28005.1) - SOUTHWEST HAWAII - 215NM SSW of Hilo, HI Image indicating link to RSS feed of recent meteorological observations for station 51002


Conditions at 51002 as of
(3:40 am HAST)
1340 GMT on 06/21/2024:
     

Click on the graph icon in the table below to see a time series plot of the last five days of that observation.

5-day plot - Wind Direction Wind Direction (WDIR): E ( 80 deg true )
5-day plot - Wind Speed Wind Speed (WSPD): 15.5 kts
5-day plot - Wind Gust Wind Gust (GST): 21.4 kts
5-day plot - Atmospheric Pressure Atmospheric Pressure (PRES):29.95 in
5-day plot - Air Temperature Air Temperature (ATMP): 77.7 °F
5-day plot - Dew Point Dew Point (DEWP): 73.9 °F
5-day plot - Heat Index Heat Index (HEAT): 79.9 °F
5-day plot - Wind Speed at 10 Meters Wind Speed at 10 meters (WSPD10M): 17.5 kts
5-day plot - Wind Speed at 20 Meters Wind Speed at 20 meters (WSPD20M): 17.5 kts
5-day plot -  Wind Speed, Wind Gust and Atmospheric Pressure Combined plot of Wind Speed, Gust, and Air Pressure
Supplemental Measurements
Highest 1-minute Wind Speed
Time (HAST)5-day plot - 1-Minute Wind Speed WSPD 5-day plot - 1-Minute Wind Direction WDIR
3:37 am 17.5 kts-
Previous observations
TIME
(HAST)
5-day plot - Wind Direction
WDIR
 
5-day plot - Wind Speed
WSPD
kts
5-day plot - Wind Gust
GST
kts
5-day plot - Wave Height
WVHT
ft
5-day plot - Dominant Wave Period
DPD
sec
5-day plot - Average Wave Period
APD
sec
5-day plot - Mean Wave Direction
MWD
 
5-day plot - Atmospheric Pressure
PRES
in
5-day plot - Pressure Tendency
PTDY
in
5-day plot - Air Temperature
ATMP
°F
5-day plot - Water Temperature
WTMP
°F
5-day plot - Dew Point
DEWP
°F
5-day plot - Salinity
SAL
psu
5-day plot - Visibility
VIS
nmi
5-day plot - Tide (above MLLW)
TIDE
ft
2024-06-21 03:30 am E 15.5 19.4----29.95- 77.9- 74.3---
2024-06-21 03:20 am E 15.5 19.4----29.95- 77.7- 73.8---
2024-06-21 03:10 am E 15.5 21.4----29.95- 77.7- 73.9---
2024-06-21 03:00 am E 17.5 21.4----29.95-0.04 77.7- 73.6---
2024-06-21 02:50 am E 17.5 21.4----29.95- 77.7- 73.8---
2024-06-21 02:40 am E 17.5 23.3----29.95- 77.5- 73.6---
2024-06-21 02:30 am E 17.5 21.4----29.95- 77.9- 74.1---
2024-06-21 02:20 am E 17.5 23.3----29.96- 77.9- 73.9---
2024-06-21 02:10 am E 17.5 23.3----29.96- 77.7- 73.6---
2024-06-21 02:00 am E 19.4 25.3----29.96-0.04 77.5- 73.6---
2024-06-21 01:50 am E 17.5 21.4----29.96- 77.7- 74.1---
2024-06-21 01:40 am E 17.5 23.3----29.96- 77.7- 74.1---
2024-06-21 01:30 am E 19.4 25.3----29.96- 77.7- 74.1---
2024-06-21 01:20 am E 17.5 21.4----29.97- 77.7- 73.9---
2024-06-21 01:10 am E 19.4 25.3----29.97- 77.7- 74.1---
2024-06-21 01:00 am E 19.4 23.3----29.97-0.01 77.4- 73.8---
2024-06-21 12:50 am E 19.4 25.3----29.98- 77.0- 73.9---
2024-06-21 12:40 am E 15.5 21.4----29.98- 76.5- 74.7---
2024-06-21 12:30 am E 15.5 21.4----29.98- 75.9- 74.3---
2024-06-21 12:20 am E 17.5 23.3----29.99- 76.6- 74.5---
2024-06-21 12:10 am E 15.5 21.4----29.99- 75.6- 73.6---
2024-06-21 12:00 am E 19.4 27.2----29.99+0.01 75.2- 73.6---
2024-06-20 11:50 pm E 17.5 27.2----29.99- 77.5- 74.7---
2024-06-20 11:40 pm E 17.5 23.3----29.99- 77.5- 74.5---
2024-06-20 11:30 pm E 17.5 21.4----29.99- 77.5- 74.3---
2024-06-20 11:20 pm E 19.4 25.3----29.99- 77.5- 73.8---
2024-06-20 11:10 pm E 21.4 27.2----30.00- 77.2- 73.2---
2024-06-20 11:00 pm E 19.4 25.3----30.00+0.03 76.5- 73.2---
2024-06-20 10:50 pm E 21.4 33.0----30.00- 76.8- 73.4---
2024-06-20 10:40 pm E 19.4 25.3----29.99- 77.9- 74.1---
2024-06-20 10:30 pm E 19.4 25.3----30.00- 78.1- 74.1---
2024-06-20 10:20 pm E 19.4 25.3----29.99- 77.9- 73.6---
2024-06-20 10:10 pm E 17.5 23.3----29.99- 77.7- 73.9---
2024-06-20 10:00 pm E 19.4 25.3----29.98+0.04 77.5- 73.8---
2024-06-20 09:50 pm E 17.5 23.3----29.99- 77.5- 74.7---
2024-06-20 09:40 pm E 19.4 25.3----29.99- 78.1- 74.8---
2024-06-20 09:30 pm E 19.4 25.3----29.98- 77.9- 73.6---
2024-06-20 09:20 pm E 19.4 23.3----29.99- 78.1- 73.9---
2024-06-20 09:10 pm E 19.4 25.3----29.98- 77.9- 73.6---
2024-06-20 09:00 pm E 19.4 25.3----29.98+0.05 77.9- 73.6---
2024-06-20 08:50 pm E 19.4 25.3----29.98- 77.7- 73.6---
2024-06-20 08:40 pm E 19.4 27.2----29.97- 77.7- 73.8---
2024-06-20 08:30 pm E 17.5 23.3----29.97- 77.7- 74.1---
2024-06-20 08:20 pm E 17.5 21.4----29.97- 77.7- 74.1---
2024-06-20 08:10 pm E 17.5 23.3----29.97- 77.7- 73.6---
2024-06-20 08:00 pm E 17.5 23.3----29.97+0.04 77.7- 73.8---
2024-06-20 07:50 pm E 19.4 23.3----29.96- 77.5- 73.6---
2024-06-20 07:40 pm E 17.5 23.3----29.96- 77.7- 73.9---
2024-06-20 07:30 pm E 17.5 21.4----29.96- 77.5- 74.3---
2024-06-20 07:20 pmENE 17.5 21.4----29.96- 77.5- 74.1---
2024-06-20 07:10 pm E 15.5 23.3----29.95- 77.5- 73.8---
2024-06-20 07:00 pmENE 17.5 21.4----29.95+0.02 77.2- 73.4---
2024-06-20 06:50 pmENE 17.5 23.3----29.95- 77.0- 73.6---
2024-06-20 06:40 pmENE 17.5 23.3----29.94- 77.2- 74.1---
2024-06-20 06:30 pmENE 17.5 23.3----29.94- 77.7- 74.1---
2024-06-20 06:20 pmENE 17.5 23.3----29.94- 77.7- 73.2---
2024-06-20 06:10 pmENE 17.5 21.4----29.94- 78.1- 73.9---
2024-06-20 06:00 pmENE 17.5 21.4----29.94+0.00 77.9- 73.4---
2024-06-20 05:50 pmENE 17.5 23.3----29.93- 78.1- 73.6---
2024-06-20 05:40 pmENE 17.5 21.4----29.93- 78.3- 73.9---
2024-06-20 05:30 pmENE 17.5 21.4----29.93- 78.3- 73.6---
2024-06-20 05:20 pmENE 15.5 21.4----29.93- 78.4- 73.6---
2024-06-20 05:10 pm E 17.5 23.3----29.93- 78.4- 72.7---
2024-06-20 05:00 pm E 17.5 23.3----29.93-0.02 78.4- 72.3---
2024-06-20 04:50 pmENE 19.4 23.3----29.92- 78.4- 72.1---
2024-06-20 04:40 pmENE 19.4 23.3----29.92- 78.4- 72.5---
2024-06-20 04:30 pmENE 19.4 23.3----29.92- 78.6- 72.7---
2024-06-20 04:20 pmENE 19.4 25.3----29.92- 78.4- 72.7---
2024-06-20 04:10 pmENE 19.4 23.3----29.93- 78.4- 72.7---
2024-06-20 04:00 pmENE 17.5 23.3----29.93-0.04 78.6- 73.2---
2024-06-20 03:50 pmENE 17.5 23.3----29.93- 78.6- 73.2---
2024-06-20 03:40 pm E 17.5 21.4----29.93- 78.6- 73.0---
2024-06-20 03:30 pm E 17.5 23.3----29.94- 78.4- 72.7---
2024-06-20 03:20 pm E 17.5 21.4----29.94- 78.4- 73.0---
2024-06-20 03:10 pm E 17.5 23.3----29.94- 78.1- 73.0---
2024-06-20 03:00 pm E 17.5 23.3----29.94-0.05 78.1- 73.6---
2024-06-20 02:50 pmENE 17.5 23.3----29.94- 77.9- 73.9---
2024-06-20 02:40 pm E 17.5 23.3----29.95- 77.9- 74.3---
2024-06-20 02:30 pm E 15.5 21.4----29.95- 78.1- 74.3---
2024-06-20 02:20 pmENE 17.5 23.3----29.95- 77.9- 74.1---
2024-06-20 02:10 pm-------29.95-------
2024-06-20 02:00 pmENE 17.5 21.4----29.95-0.05 78.3- 74.7---
2024-06-20 01:50 pm E 17.5 21.4----29.95- 78.3- 73.8---
2024-06-20 01:40 pmENE 19.4 23.3----29.95- 78.3- 73.6---
2024-06-20 01:20 pm-------29.96-------
2024-06-20 01:10 pm E 19.4 27.2----29.96- 78.3- 73.2---
2024-06-20 01:00 pmENE 19.4 23.3----29.96-0.04 78.4- 73.4---
2024-06-20 12:50 pm E 19.4 25.3----29.97- 78.3- 73.0---
2024-06-20 12:40 pm E 19.4 25.3----29.97- 78.1- 73.0---
2024-06-20 12:30 pm E 19.4 25.3----29.97- 78.1- 73.9---
2024-06-20 12:20 pm E 19.4 23.3----29.97- 78.3- 74.3---
2024-06-20 12:10 pm E 17.5 23.3----29.98- 78.3- 73.9---
2024-06-20 12:00 pmENE 19.4 25.3----29.98-0.02 78.4- 74.1---
2024-06-20 11:50 am E 19.4 25.3----29.99- 78.3- 73.8---
2024-06-20 11:40 am E 19.4 25.3----29.99- 78.3- 73.9---
2024-06-20 11:30 am E 19.4 25.3----29.99- 78.4- 74.1---
2024-06-20 11:20 am E 19.4 23.3----30.00- 78.4- 74.1---
2024-06-20 11:10 am E 19.4 23.3----30.00- 78.1- 73.8---
2024-06-20 11:00 am E 17.5 23.3----30.00+0.00 78.4- 74.7---
2024-06-20 10:50 am E 19.4 25.3----30.00- 78.4- 74.3---
2024-06-20 10:40 am E 17.5 23.3----30.01- 78.4- 74.3---
2024-06-20 10:30 am E 17.5 21.4----30.01- 78.6- 74.5---
2024-06-20 10:20 am E 19.4 25.3----30.01- 78.4- 73.8---
2024-06-20 10:10 am E 17.5 23.3----30.01- 78.4- 74.1---
2024-06-20 10:00 am E 19.4 25.3----30.01+0.01 78.4- 73.9---
2024-06-20 09:50 am E 17.5 23.3----30.01- 78.3- 73.8---
2024-06-20 09:40 am E 17.5 21.4----30.01- 78.3- 74.1---
2024-06-20 09:30 am E 19.4 25.3----30.01- 78.1- 73.9---
2024-06-20 09:20 am E 17.5 21.4----30.01- 78.4- 74.8---
2024-06-20 09:10 am E 17.5 23.3----30.01- 78.4- 74.5---
2024-06-20 09:00 am E 15.5 21.4----30.01+0.03 78.4- 74.7---
2024-06-20 08:50 am E 17.5 21.4----30.01- 78.4- 74.3---
2024-06-20 08:40 am E 17.5 23.3----30.01- 78.4- 74.3---
2024-06-20 08:30 am E 15.5 21.4----30.01- 78.4- 74.7---
2024-06-20 08:20 am E 15.5 21.4----30.01- 78.3- 74.7---
2024-06-20 08:10 am E 13.6 19.4----30.01- 78.3- 74.7---
2024-06-20 08:00 am E 15.5 21.4----30.01+0.04 78.1- 74.7---
2024-06-20 07:50 am E 15.5 19.4----30.01- 78.3- 74.7---
2024-06-20 07:40 am E 15.5 21.4----30.01- 78.3- 74.5---
2024-06-20 07:30 amENE 15.5 19.4----30.00- 78.3- 74.7---
2024-06-20 07:20 amENE 15.5 21.4----30.00- 78.1- 74.7---
2024-06-20 07:10 amENE 15.5 21.4----30.00- 78.1- 74.7---
2024-06-20 07:00 am E 15.5 21.4----30.00+0.04 78.1- 74.5---
2024-06-20 06:50 amENE 17.5 21.4----30.00- 77.9- 74.5---
2024-06-20 06:40 am E 17.5 21.4----29.99- 77.7- 74.3---
2024-06-20 06:30 amENE 17.5 21.4----29.99- 77.7- 74.7---
2024-06-20 06:20 am E 15.5 21.4----29.99- 77.7- 74.7---
2024-06-20 06:10 amENE 15.5 21.4----29.98- 77.7- 74.7---
2024-06-20 06:00 am E 15.5 21.4----29.98+0.02 77.5- 74.5---
2024-06-20 05:50 am E 15.5 21.4----29.97- 77.7- 74.7---
2024-06-20 05:40 amENE 15.5 21.4----29.97- 77.5- 74.7---
2024-06-20 05:30 amENE 15.5 19.4----29.97- 77.5- 74.5---
2024-06-20 05:20 amENE 15.5 19.4----29.96- 77.7- 74.7---
2024-06-20 05:10 amENE 15.5 21.4----29.96- 77.5- 74.3---
2024-06-20 05:00 amENE 15.5 19.4----29.96-0.01 77.5- 74.3---
2024-06-20 04:50 amENE 17.5 21.4----29.96- 77.5- 74.3---
2024-06-20 04:40 amENE 17.5 21.4----29.96- 77.7- 74.8---
2024-06-20 04:30 amENE 15.5 21.4----29.96- 77.7- 74.7---
2024-06-20 04:20 amENE 17.5 21.4----29.96- 77.5- 74.1---
2024-06-20 04:10 am E 17.5 23.3----29.96- 77.5- 74.1---
2024-06-20 04:00 amENE 17.5 21.4----29.96-0.03 77.5- 74.5---
2024-06-20 03:50 amENE 15.5 21.4----29.96- 77.9- 74.7---